Flag for Norway Weather past 2 weeks in Spydeberg, Norway

Now
36 °F

Chilly.


Feels Like: 36 °F
Forecast: 31 / 52 °F
Wind: 2 mph from Southeast

Location: Rygge

Current Time: Apr 28, 2015 at 1:13:51 AM

Latest Report: Apr 28, 2015 at 12:20 AM


Visibility: N/A

Pressure: 29.65 "Hg

Humidity: 87%

Dew point: 32 °F

Location of SpydebergLocation

Historic Weather in Spydeberg — Graph

°F

Spydeberg temperature yesterday

Maximum temperature yesterday: 48 °F (at 12:20 PM)
Minimum temperature yesterday: 28 °F (at 4:50 AM)
Average temperature yesterday: 39 °F

Past Weeks' High & Low Weather Summary

 TemperatureHumidityPressure
High68 °F (Apr 20, 12:50 PM)100% (Apr 14, 1:20 PM)30.36 "Hg (Apr 14, 1:20 PM)
Low28 °F (Apr 27, 4:50 AM)20% (Apr 23, 2:20 PM)29.39 "Hg (Apr 25, 11:50 PM)
Average47 °F60%29.90 "Hg
* Reported Apr 12 11:20 PM — Apr 27 11:20 PM, Spydeberg, Weather by CustomWeather, © 2015

Note: Actual official high and low records may vary slightly from our data, if they occured in-between our weather recording intervals... More about our weather records

Advertising

Spydeberg weather history for previous 24 hours

 ConditionsComfort  
Time TempWeatherWind HumidityBarometerVisibility
11:20 PM
Mon, Apr 27
39 °FPassing clouds.5 mph81%29.65 "HgN/A
10:50 PM39 °FPassing clouds.3 mph81%29.65 "HgN/A
10:20 PM41 °FPartly cloudy.5 mph76%29.65 "HgN/A
9:20 PM41 °FScattered clouds.7 mph76%29.65 "HgN/A
8:50 PM43 °FScattered clouds.10 mph71%29.62 "HgN/A
8:20 PM43 °FBroken clouds.13 mph71%29.62 "HgN/A
7:50 PM43 °FBroken clouds.13 mph71%29.62 "HgN/A
7:20 PM45 °FPartly sunny.14 mph71%29.62 "HgN/A
6:50 PM45 °FScattered clouds.15 mph66%29.62 "HgN/A
6:20 PM45 °FScattered clouds.15 mph66%29.62 "HgN/A
5:50 PM46 °FScattered clouds.16 mph62%29.62 "HgN/A
5:20 PM46 °FScattered clouds.18 mph62%29.62 "HgN/A
4:50 PM46 °FPassing clouds.16 mph62%29.62 "HgN/A
4:20 PM46 °FSunny.17 mph62%29.62 "Hg10 mi
3:50 PM46 °FPassing clouds.17 mph50%29.62 "HgN/A
3:20 PM46 °FSunny.15 mph62%29.62 "Hg10 mi
2:50 PM46 °FSunny.16 mph66%29.62 "Hg10 mi
2:20 PM46 °FSunny.15 mph62%29.62 "Hg10 mi
1:20 PM48 °FSunny.12 mph58%29.62 "Hg10 mi
12:50 PM48 °FPassing clouds.9 mph58%29.62 "HgN/A
12:20 PM48 °FSunny.2 mph58%29.62 "Hg10 mi
11:50 AM46 °FSunny.2 mph62%29.62 "Hg10 mi
11:20 AM43 °FPassing clouds.3 mph87%29.62 "HgN/A
10:50 AM39 °FScattered clouds.2 mph93%29.62 "HgN/A
10:20 AM37 °FLow clouds.2 mph100%29.62 "Hg6 mi
9:50 AM37 °FFog.No wind93%29.62 "Hg1 mi
9:20 AM36 °FFog.1 mph100%29.62 "Hg0 mi
8:50 AM36 °FFog.5 mph93%29.62 "Hg0 mi
8:20 AM34 °FFog.5 mph100%29.62 "Hg0 mi
7:50 AM32 °FFog.6 mph100%29.62 "Hg0 mi
7:20 AM32 °FIce fog.6 mph100%29.62 "Hg0 mi
6:50 AM30 °FIce fog.6 mph93%29.62 "Hg0 mi
6:20 AM28 °FIce fog.3 mph100%29.62 "Hg0 mi
5:50 AM28 °FIce fog.2 mph93%29.62 "Hg0 mi
5:20 AM28 °FLight snow. Passing clouds.1 mph100%29.62 "Hg0 mi
4:50 AM28 °FIce fog.3 mph100%29.62 "Hg0 mi
4:20 AM30 °FLight fog.3 mph100%29.62 "Hg1 mi
3:50 AM32 °FChilly.2 mph100%29.62 "Hg1 mi
3:20 AM32 °FLight fog.No wind100%29.62 "Hg1 mi
2:50 AM32 °FFog.3 mph100%29.62 "Hg0 mi
2:20 AM32 °FFog.2 mph100%29.62 "Hg0 mi
1:50 AM34 °FFog.3 mph100%29.62 "Hg0 mi
1:20 AM36 °FLight fog.2 mph93%29.62 "Hg0 mi
Weather by CustomWeather, © 2015

See weather overviewHow to use our weather pages